Wind_Speed
16 13 17 20 20 21 22 14 14 10 11 7 15 15 14 12 13 12 14 9 8 1 7 4 5 8 8 4 7 14 16 18 21 24 23 22 22 22 20 18 14 17 20 18
16 17 19 17 18 15 18 14 17 15 11 9 15 18 16 13 12 15 13 10 4 4 4 3 8 9 10 8 4 7 14 17 20 21 21 20 20 21 18 17 18 16 17 17
20 17 14 20 14 15 17 18 16 16 12 10 16 18 14 16 9 5 1 3 5 2 2 7 8 11 11 9 6 3 9 16 18 20 18 17 18 16 21 19 15 17 18 22
21 20 15 13 17 16 18 17 16 16 14 13 21 14 20 18 12 12 9 8 5 3 8 9 11 12 14 13 12 10 2 11 15 16 19 17 17 18 21 16 17 17 19 22
21 22 20 19 17 17 16 17 13 16 17 16 16 9 17 21 20 16 8 5 5 9 10 11 14 15 16 16 16 15 9 1 6 9 16 16 17 18 19 19 17 17 19 20
21 19 15 16 17 13 10 13 17 13 15 16 21 17 12 13 22 18 11 7 6 8 10 11 14 17 19 20 18 20 19 16 11 5 9 12 16 13 17 16 18 20 19 18
21 21 12 5 12 12 13 14 11 14 14 17 18 19 12 11 12 16 13 10 8 6 9 11 11 14 17 21 21 19 19 18 19 16 5 8 12 16 15 16 17 18 19 19
15 17 20 14 17 18 14 18 15 20 14 14 14 21 10 15 12 12 11 10 8 7 10 10 11 13 16 18 19 20 20 19 18 17 16 12 7 11 14 16 20 12 16 16
12 6 5 5 5 10 16 14 9 10 18 14 9 10 10 13 13 14 13 10 7 6 6 7 11 11 13 13 15 17 17 17 19 19 18 15 14 14 9 11 13 13 11 12
10 9 13 10 9 10 12 8 8 10 13 18 15 7 5 2 5 10 12 9 7 3 3 5 7 9 10 11 15 16 14 15 17 18 18 18 19 12 15 12 10 10 13 15
12 9 9 8 10 14 8 12 14 13 7 12 13 10 7 4 3 11 10 7 5 3 7 7 9 9 12 13 14 13 15 14 15 17 17 17 17 17 15 13 9 10 15 18
9 7 13 15 4 13 11 12 1 6 13 13 13 12 12 13 9 3 4 2 6 6 7 8 10 11 12 12 14 15 13 15 14 13 14 17 17 16 15 16 10 10 14 19
11 7 11 17 17 13 13 16 14 13 14 18 11 3 4 4 3 4 1 3 2 5 7 8 11 11 13 15 15 15 14 13 15 14 15 12 15 16 15 14 13 10 7 11
7 11 14 12 4 8 12 4 10 10 11 18 18 18 9 7 9 4 2 3 5 4 5 8 9 12 13 14 15 16 15 15 14 14 14 13 10 13 15 14 13 10 8 10
7 14 15 14 12 7 12 15 13 13 14 14 14 3 16 17 16 4 2 7 8 9 8 7 8 11 14 15 15 16 16 16 15 15 14 15 10 8 11 13 13 12 11 8
7 11 12 12 13 14 11 14 13 15 14 14 13 13 7 8 3 5 7 6 6 9 10 10 11 15 16 16 16 17 18 18 17 17 16 14 16 6 10 10 11 11 12 11
7 10 10 13 5 8 13 16 15 17 16 13 12 10 10 3 3 5 6 8 9 8 10 12 14 16 16 17 18 18 20 20 19 19 17 16 16 11 10 11 11 11 11 10
12 10 11 10 10 8 3 5 6 10 15 10 8 4 3 4 8 10 11 9 8 9 12 13 17 19 19 19 20 20 20 21 22 21 20 18 17 19 12 7 13 10 11 12
12 10 6 5 9 10 9 6 1 6 7 5 6 5 2 2 5 10 10 7 8 11 14 17 20 21 22 23 22 22 22 21 21 23 22 21 19 18 21 13 9 12 12 12
12 11 8 9 3 5 5 5 4 3 7 6 3 4 5 5 9 3 8 10 11 16 19 20 22 24 24 23 24 23 24 24 22 22 23 23 22 19 20 21 14 13 13 16
9 11 11 10 6 8 8 3 2 8 4 6 7 5 8 9 9 13 15 14 18 21 21 20 21 23 20 19 18 18 20 20 24 24 23 23 24 24 22 23 20 14 14 16
7 9 8 11 7 9 4 3 5 5 1 4 8 10 11 11 11 14 15 14 18 20 20 16 18 18 20 16 16 18 19 21 23 24 25 24 24 26 26 24 22 18 16 16
4 2 4 2 2 1 1 4 2 4 9 9 10 11 10 10 11 15 13 13 16 18 20 17 15 17 19 23 16 16 18 19 20 22 23 24 26 24 27 28 20 20 19 17
7 4 4 5 5 5 3 7 3 4 7 9 10 12 12 13 14 13 13 13 16 18 17 18 21 20 19 22 20 18 17 20 22 20 24 23 23 25 26 29 22 21 23 20
8 4 5 9 10 10 7 2 7 8 7 10 10 12 11 13 14 14 13 11 19 19 18 19 19 20 25 21 23 23 16 20 21 21 21 19 21 21 25 25 24 24 21 7
11 13 7 8 6 6 3 1 4 8 11 11 11 12 13 14 14 16 14 17 17 18 20 21 23 21 23 20 19 18 17 17 17 19 20 18 19 20 21 20 20 16 11 10
Wind_Direction
207 218 221 232 228 249 274 282 292 248 232 214 239 248 235 231 228 225 230 215 215 83 70 62 49 43 36 37 244 204 213 209 211 207 207 214 218 219 219 224 220 213 199 196
236 231 250 239 255 242 254 259 257 262 253 220 249 242 248 244 227 230 229 175 125 194 146 59 48 49 49 36 19 238 220 215 215 216 219 220 221 224 224 217 224 213 197 198
236 235 231 246 242 244 241 248 249 253 217 247 262 255 224 231 199 110 169 82 171 187 66 59 59 44 40 31 13 315 247 221 218 226 219 225 232 241 219 213 210 209 202 205
251 240 253 250 254 240 248 237 253 265 245 241 206 251 217 209 180 184 176 193 156 111 76 57 57 41 44 27 23 16 284 230 221 220 233 223 228 232 226 212 213 211 210 214
251 238 245 251 250 239 246 269 225 247 255 260 242 241 292 172 181 177 169 130 130 85 63 58 54 47 37 33 35 28 19 8 230 229 230 241 227 246 235 233 227 205 205 215
251 267 230 259 239 253 284 263 258 243 246 243 244 249 234 217 184 147 141 133 99 85 78 63 64 53 46 40 38 40 27 25 19 260 237 234 265 258 257 231 225 223 219 216
236 250 218 244 258 227 238 240 241 228 228 243 245 236 252 91 85 136 139 130 106 98 78 62 43 57 50 44 39 42 39 31 20 18 4 236 243 256 264 264 242 235 218 216
266 237 201 180 245 259 232 232 244 250 247 259 279 229 136 115 119 122 120 103 102 83 74 60 48 41 57 51 41 37 37 33 29 25 15 4 299 253 249 256 262 261 239 216
289 287 189 314 264 263 252 259 277 309 275 263 239 104 126 142 146 150 139 120 98 80 80 52 66 38 43 42 47 31 23 29 27 27 20 12 4 349 319 271 262 249 224 190
315 281 196 164 249 227 252 301 254 240 270 271 267 203 324 290 161 160 132 122 95 25 49 46 43 46 37 29 37 31 22 26 22 21 21 16 9 358 353 322 286 234 214 192
295 276 250 261 222 248 197 236 231 249 215 251 265 278 136 153 53 343 65 59 51 335 5 357 3 9 352 5 10 19 6 11 13 10 10 12 10 9 354 341 309 274 228 219
334 305 272 233 292 322 302 283 4 288 223 234 267 260 140 156 155 211 58 81 61 16 15 22 8 11 5 3 352 349 349 346 356 358 0 3 359 360 5 355 328 294 249 211
352 249 265 245 213 190 248 259 254 253 265 269 258 246 335 57 171 143 337 38 17 346 31 359 353 358 356 354 353 350 341 344 338 345 341 357 352 352 354 354 352 330 294 223
310 279 275 287 132 225 282 258 279 278 262 259 254 261 212 224 265 199 240 305 319 335 350 347 339 343 346 341 343 339 334 330 328 329 329 328 342 343 344 345 347 347 331 286
255 275 277 280 289 278 283 283 278 246 259 267 264 302 193 213 227 146 298 288 298 304 316 330 334 328 326 328 327 325 330 321 317 315 315 305 309 323 331 335 341 341 339 325
243 265 276 285 272 267 275 275 268 262 266 269 275 274 289 290 39 283 251 265 290 305 318 339 326 322 318 316 315 317 310 314 313 306 302 304 292 305 305 318 326 330 334 332
289 272 274 270 326 298 267 258 257 254 245 251 260 273 22 47 233 268 304 301 286 314 350 329 318 314 315 313 309 305 306 304 301 301 294 290 286 268 288 301 310 320 320 317
259 277 271 278 285 263 34 22 306 284 273 238 233 277 197 335 352 319 289 307 6 343 323 316 313 312 307 306 305 302 300 301 298 293 291 285 283 286 256 266 295 302 309 314
216 252 271 254 262 275 284 171 251 265 199 211 243 225 132 43 332 280 50 17 340 321 310 307 311 310 311 305 298 296 294 292 293 291 286 283 278 276 286 246 256 280 289 295
227 214 244 274 231 248 76 59 30 341 247 67 101 314 10 328 278 175 23 340 320 320 321 321 313 303 299 298 301 300 297 291 286 287 289 285 282 275 274 282 253 262 275 281
196 226 223 244 254 291 114 108 8 247 67 43 32 346 313 306 317 325 320 325 336 315 319 320 308 304 300 296 303 300 298 296 289 289 285 282 279 277 270 269 262 257 265 277
192 185 224 217 237 245 80 154 271 60 302 317 348 332 311 309 311 311 328 320 320 316 309 313 313 302 305 297 293 286 284 284 288 290 289 284 276 271 267 262 251 246 251 264
232 323 277 305 248 65 198 306 75 319 320 320 322 327 314 310 300 302 302 311 299 312 312 317 305 301 292 283 263 267 277 296 292 286 282 280 291 287 269 266 254 241 239 243
255 203 245 250 257 247 249 284 323 273 283 319 334 332 316 298 290 287 308 299 303 307 296 301 307 295 288 291 296 286 288 296 291 276 272 277 270 272 277 270 268 236 245 244
295 290 277 286 278 292 271 276 359 347 318 300 312 304 298 301 301 305 290 293 294 298 305 300 298 299 297 293 295 296 296 299 299 293 285 284 281 265 265 267 262 242 247 252
255 255 253 257 340 318 354 34 290 285 302 339 331 309 306 306 306 308 308 305 304 308 305 304 303 305 297 294 295 297 297 304 302 304 294 291 290 277 276 264 253 228 216 252
Height
761 768 765 756 747 742 736 744 742 730 725 745 745 739 731 725 729 731 729 730 732 736 746 755 756 753 753 755 755 758 762 765 770 772 775 778 779 780 783 785 788 791 790 797
760 767 748 739 738 743 748 754 752 738 729 743 746 743 730 725 726 727 727 727 738 745 750 755 752 753 754 756 757 757 760 763 767 769 771 773 775 776 779 784 788 790 791 795
759 745 734 744 743 756 752 755 750 748 733 741 747 743 734 723 719 727 735 738 745 749 749 749 751 754 755 757 757 757 757 760 763 767 769 772 773 773 775 778 782 784 786 789
747 735 740 748 749 745 760 739 745 745 749 758 734 758 727 723 736 740 743 743 744 746 746 749 750 754 755 756 756 755 757 757 760 763 766 767 769 770 770 772 777 780 784 785
747 739 743 744 746 739 750 734 738 747 749 748 738 753 722 713 737 742 745 748 748 747 751 753 756 758 758 757 758 758 756 758 760 761 764 765 767 767 767 770 773 775 777 779
737 722 728 734 732 734 736 743 743 742 746 762 741 737 732 715 720 733 747 752 751 750 753 756 759 762 762 762 762 763 761 761 761 760 762 764 765 765 765 765 768 771 774 776
736 737 732 740 747 739 747 754 769 769 763 758 727 735 726 729 722 733 749 753 752 753 755 760 762 763 766 767 767 765 766 766 764 763 762 763 764 765 766 766 763 766 766 768
748 753 732 736 749 748 741 748 760 771 758 739 719 732 736 734 738 742 748 752 755 757 761 765 768 767 768 771 772 771 770 770 768 766 765 764 763 763 763 763 763 762 763 764
752 752 746 750 748 749 750 757 739 762 748 752 737 738 743 742 748 750 751 755 762 764 765 767 770 771 769 770 772 773 773 772 771 769 768 766 764 761 761 761 761 761 761 763
759 769 750 751 754 748 753 739 768 760 785 783 758 760 774 761 756 750 752 757 764 767 766 768 769 772 772 772 773 775 774 773 773 772 770 769 766 764 761 760 760 760 761 764
768 772 757 754 758 753 753 757 756 759 780 776 779 764 769 774 790 763 759 767 769 771 771 771 772 775 774 774 774 776 776 773 773 773 772 770 769 766 765 762 760 759 761 762
767 777 773 761 753 757 755 755 761 783 775 765 759 761 757 768 776 780 773 777 775 776 776 775 776 776 778 779 779 778 778 775 774 773 772 771 770 768 766 763 762 760 759 760
780 777 780 763 753 753 766 757 757 762 774 781 785 777 770 770 773 774 775 774 776 780 779 778 780 779 781 781 781 781 780 778 778 776 773 771 771 769 767 765 763 761 759 760
793 786 781 777 799 789 777 767 764 766 779 771 770 762 783 781 777 773 775 777 779 780 781 782 785 783 784 784 783 782 781 780 779 778 775 771 771 770 768 766 764 761 760 760
790 793 779 772 766 768 774 772 766 770 767 774 766 783 786 781 772 774 778 781 782 781 780 782 785 787 787 786 785 783 782 781 779 778 775 773 769 769 769 767 765 763 760 759
785 790 781 782 766 765 775 770 767 767 767 766 765 767 756 760 769 775 777 778 781 783 782 784 788 788 787 786 786 785 783 780 779 776 773 771 769 767 768 767 765 763 761 758
797 791 788 787 771 774 778 764 763 762 761 766 773 764 762 766 773 776 776 779 781 782 787 791 792 790 788 787 786 784 782 780 777 774 771 768 766 764 766 765 764 762 760 759
798 795 786 787 778 797 765 761 766 770 763 754 763 763 768 772 776 779 777 777 781 787 791 792 791 789 788 786 785 783 781 778 775 772 769 767 764 761 760 763 764 761 759 757
788 796 797 796 779 769 758 756 768 766 764 760 763 763 767 775 780 776 781 786 789 791 791 790 789 787 785 783 781 780 778 775 773 770 766 763 761 760 758 754 758 760 759 756
780 790 796 786 803 794 777 769 766 768 773 760 765 771 776 781 783 778 786 788 788 788 788 788 789 788 785 783 781 778 776 772 769 767 765 762 759 757 757 755 754 755 756 752
785 788 795 795 799 783 778 772 771 783 789 777 777 781 783 786 785 784 784 784 788 789 786 787 787 783 781 782 781 779 777 774 769 764 761 759 757 755 753 752 752 751 752 750
775 785 787 785 794 796 768 773 779 786 778 779 781 785 786 784 784 786 786 789 787 785 786 783 783 781 779 777 777 774 772 769 766 762 758 754 753 751 747 745 746 746 746 746
785 777 781 779 778 774 771 774 776 780 781 782 783 785 787 788 790 789 788 788 787 782 784 779 780 778 776 772 769 767 765 763 761 758 755 752 749 746 744 740 740 742 741 740
771 766 781 778 770 771 772 773 774 781 782 783 784 788 788 787 785 786 785 787 782 781 780 778 776 771 770 767 764 762 760 758 754 751 749 746 744 742 740 736 736 735 734 729
769 776 777 774 768 766 767 771 776 779 783 783 786 787 786 786 783 781 781 782 779 777 775 773 771 769 765 760 759 757 755 752 749 745 742 740 737 735 734 732 731 730 730 726
771 772 777 781 776 776 777 782 782 784 782 785 786 786 783 782 781 780 778 778 774 774 773 769 765 763 759 756 754 751 749 747 744 742 739 735 734 731 729 727 726 725 725 724